Regional Weather Roundup
Issued by NWS Huntsville, AL

Home | Current Version | Previous Version | Text Only | Print | Product List | Glossary On
Versions: 1 2 3 4 5 6 7 8 9 10 11 12 13 14 15 16 17 18 19 20 21 22 23 24 25 26 27 28 29 30 31 32 33 34 35 36 37 38 39 40 41 42 43 44 45 46 47 48 49 50
000
ASUS44 KHUN 202010
RWRHUN

WEATHER ROUNDUP FOR THE TENNESSEE VALLEY
NATIONAL WEATHER SERVICE HUNTSVILLE AL
300 PM CDT SAT SEP 20 2014

ALZ001>004-202100-
NORTHWEST ALABAMA

CITY           SKY/WX    TMP DP  RH WIND       PRES   REMARKS
COURTLAND HCN    N/A     84  32  15 NE3         N/A
RUSSELLVILLE     N/A     84 N/A N/A MISG        N/A
SHOALS AIRPORT SUNNY     87  62  43 CALM      30.04F
SHOALS TVA RES   N/A     84 N/A N/A MISG        N/A
$$

ALZ005>007-016-202100-
NORTH CENTRAL ALABAMA

CITY           SKY/WX    TMP DP  RH WIND       PRES   REMARKS
DECATUR AP     PTSUNNY   86  60  41 S8        30.04F
HUNTSVILLE AP  MOSUNNY   87  62  43 SE5       30.04F
HUN NWS/UAH      N/A     87  58  37 S6          N/A
MERIDIANVILLE  SUNNY     86  50  28 E5        30.05F
VINEMONT AP    MOCLDY    84  61  45 E5        30.07F
$$

ALZ008>010-202100-
NORTHEAST ALABAMA

CITY           SKY/WX    TMP DP  RH WIND       PRES   REMARKS
ALBERTVILLE    MOSUNNY   82  70  65 E3        30.05F
FORT PAYNE     PTSUNNY   82  55  39 S6        30.05F
SCOTTSBORO AP  MOSUNNY   84  63  48 E7        30.05F
SCOTTSBORO HCN   N/A     79 N/A N/A MISG        N/A
VALLEY HEAD      N/A     81 N/A N/A MISG        N/A
$$

TNZ076-096-097-202100-
SOUTHEASTERN MIDDLE TENNESSEE

CITY           SKY/WX    TMP DP  RH WIND       PRES   REMARKS
FAYETTEVILLE   MOSUNNY   82  61  47 S6        30.06F
TULLAHOMA      SUNNY     84  61  45 SW6       30.08F
WINCHESTER     MOSUNNY   84  63  48 SW5       30.07F
$$

...SURROUNDING SITES...

CITY           SKY/WX    TMP DP  RH WIND       PRES   REMARKS
ATLANTA        MOSUNNY   82  60  47 E9        30.07F
ANNISTON       MOSUNNY   83  63  50 NE6       30.05F
BIRMINGHAM     MOSUNNY   84  63  49 SE9       30.06F
CHATTANOOGA    MOSUNNY   84  61  45 SE5       30.06F
CORINTH        FAIR      88  66  48 CALM      30.02F HX  90
DALTON         MOSUNNY   82  61  47 CALM      30.05F
GADSDEN        CLOUDY    82  61  47 NE6       30.05F
GOLDEN TRNGL   PTSUNNY   86  64  48 E3        30.02F
HALEYVILLE     FAIR      85  62  45 CALM      30.08F
JACKSON TN     MOSUNNY   86  67  52 VRB3      30.02F
LEWISBURG      FAIR      88  65  46 SW7       30.05F HX  90
MEMPHIS        MOSUNNY   90  66  45 CALM      30.01F HX  92
MURFREESBORO   FAIR      85  61  44 SW5       30.04F
NASHVILLE      PTSUNNY   87  64  46 VRB6      30.04F
OXFORD MS      PTSUNNY   82  66  57 E3        30.04F
ROME           MOSUNNY   85  61  44 E8        30.04F
SAVANNAH       SUNNY     84  66  54 CALM      30.04F
TUPELO         PTSUNNY   86  66  51 SE6       30.02F
TUSCALOOSA     SUNNY     88  61  40 NE8       30.00F
$$

...GULF COAST WEATHER...

CITY           SKY/WX    TMP DP  RH WIND       PRES   REMARKS
GULFPORT       MOSUNNY   87  65  47 E9        29.94F
PASCAGOULA     MOSUNNY   85  68  56 E10       29.96F
MOBILE         MOSUNNY   84  69  60 NE12      29.98F
GULF SHORES    PTCLDY    84  69  61 NE10      29.96F
PENSACOLA      PTSUNNY   84  67  56 E12G20    29.96F
DESTIN         MOSUNNY   83  69  62 NE7       29.96F
PANAMA CITY    MOSUNNY   82  73  74 NE15      29.95S
APPALACHICOLA  PTSUNNY   85  69  58 N13       29.94S
$$



USA.gov is the U.S. government's official web portal to all federal, state and local government web resources and services.